[[{"header":{"parameterUnit":"m.s-1","parameterCategory":1,"la1":30.2991,"la2":30.254,"lo1":-89.0895,"lo2":-89.0444,"dy":0.0017,"dx":0.0017,"nx":28,"ny":28,"refTime":"2025-02-13T03:00:00:Z","depth":0,"parameterNumber":2,"parameterNumberName":"U-component_of_WINDS"},"data":[0,0,0,0,0,0,0,0,0,0,0,0,0,0,0,0,0,0,0,0,0,0,0,0,0,0,0,0,0,0,0,0,0,0,0,0,0,0,0,0,0,0,0,0,0,0,0,0,0,0,0,0,0,0,0,0,0,0,-1.8848,-1.8848,0,-1.8915,-1.8915,-1.8916,-1.8879,-1.8877,-1.8875,-1.8873,-1.8944,-1.8947,-1.8951,0,0,0,0,0,0,0,0,0,0,0,0,0,-1.8688,-1.8691,-1.8847,-1.8848,-1.8849,-1.8915,-1.8915,-1.8916,-1.8879,-1.8877,-1.8874,-1.8872,-1.8942,-1.8947,-1.8951,0,0,0,0,0,0,0,0,0,0,0,0,0,-1.8756,-1.8692,-1.8847,-1.8838,-1.8838,-1.8914,-1.8916,-1.8917,-1.8879,-1.8877,-1.8874,-1.8871,-1.8941,-1.8946,-1.8952,-1.9041,0,0,-1.8968,-1.8971,0,0,0,0,0,0,0,0,-1.8753,-1.8762,-1.8839,-1.8839,-1.8839,-1.8885,-1.8885,-1.8958,-1.888,-1.8864,-1.8873,-1.887,-1.8927,-1.8933,-1.8952,-1.9044,-1.9047,-1.8969,-1.8972,-1.8974,-1.8976,0,0,0,0,0,0,0,-1.8748,-1.8759,-1.8874,-1.884,-1.884,-1.8831,-1.8838,-1.8899,-1.891,-1.8865,-1.8862,-1.8871,-1.8926,-1.8947,-1.8953,-1.9049,-1.8969,-1.8973,-1.8977,-1.8979,-1.9218,-1.9221,0,0,0,0,0,0,-1.8743,-1.8755,-1.8872,-1.8876,-1.8788,-1.8836,-1.8844,-1.8873,-1.8909,-1.8912,-1.8873,-1.8869,-1.8939,-1.8947,-1.8956,-1.9063,-1.8974,-1.8979,-1.8982,-1.9215,-1.9219,-1.9222,0,0,0,0,0,0,-1.874,-1.8754,-1.8869,-1.8815,-1.8829,-1.8842,-1.8876,-1.8876,-1.8897,-1.8915,-1.8917,-1.8892,-1.8937,-1.8948,-1.902,-1.9065,-1.8982,-1.8987,-1.9211,-1.9216,-1.922,-1.9279,0,0,0,0,0,0,-1.8736,-1.8753,-1.8787,-1.8816,-1.8832,-1.8933,-1.8878,-1.8879,-1.8906,-1.8901,-1.8934,-1.8936,-1.8936,-1.9012,-1.9025,-1.9071,-1.8991,-1.9207,-1.9213,-1.9219,-1.9273,-1.9285,-1.9295,0,0,0,0,0,-1.873,-1.8802,-1.8789,-1.8804,-1.8875,-1.8935,-1.8945,-1.8942,-1.891,-1.8944,-1.8956,-1.8935,-1.9058,-1.902,-1.9034,-1.9083,-1.9204,-1.9212,-1.9218,-1.9268,-1.9283,-1.9295,0,0,0,0,0,0,-1.8779,-1.8805,-1.8792,-1.8875,-1.8903,-1.8929,-1.8973,-1.8957,-1.8995,-1.8989,-1.8984,-1.8992,-1.9067,-1.9082,-1.9039,-1.9171,-1.9126,-1.9136,-1.9159,-1.9173,-1.9184,-1.918,-1.8995,0,0,0,0,0,-1.8799,-1.8845,-1.8866,-1.8937,-1.8952,-1.896,-1.8986,-1.8981,-1.901,-1.9022,-1.9039,-1.9069,-1.9114,-1.9144,-1.9186,-1.9274,-1.9281,-1.9315,-1.9326,-1.9335,-1.9344,-1.9392,-1.9407,-1.9245,-1.9245,-1.9245,0,0,-1.8842,-1.8862,-1.8892,-1.8947,-1.8969,-1.9017,-1.897,-1.9024,-1.906,-1.9031,-1.91,-1.9113,-1.9146,-1.9227,-1.9263,-1.9241,-1.939,-1.9343,-1.9351,-1.9355,-1.9401,-1.9416,-1.943,-1.9249,-1.9249,-1.9248,0,0,-1.8944,-1.8964,-1.9025,-1.9047,-1.908,-1.9084,-1.9099,-1.9127,-1.9135,-1.9204,-1.9183,-1.9226,-1.9303,-1.9328,-1.935,-1.946,-1.9443,-1.9474,-1.9533,-1.958,-1.9593,-1.9604,-1.9644,-1.9659,-1.9483,-1.9483,-1.9484,0,-1.8994,-1.9066,-1.9059,-1.9114,-1.914,-1.9114,-1.9177,-1.9198,-1.9243,-1.9262,-1.9236,-1.9333,-1.9353,-1.9439,-1.9466,-1.9484,-1.9501,-1.9472,-1.9591,-1.9603,-1.9613,-1.9652,-1.9667,-1.9487,-1.9487,-1.9486,-1.9486,0,-1.9125,-1.9175,-1.9221,-1.9265,-1.9295,-1.9353,-1.9356,-1.9387,-1.9379,-1.9387,-1.9457,-1.948,-1.9527,-1.9546,-1.9539,-1.9631,-1.9617,-1.9591,-1.9547,-1.9632,-1.9668,-1.9683,-1.9492,-1.9491,-1.949,-1.9489,0,0,-1.9263,-1.93,-1.9318,-1.9337,-1.937,-1.9409,-1.9466,-1.9511,-1.9539,-1.957,-1.9618,-1.9684,-1.966,-1.9685,-1.9681,-1.9721,-1.9808,-1.9691,-1.9691,-1.9713,-1.9912,-1.9932,-1.9949,-1.9796,-1.9799,-1.9801,-1.991,0,-1.9369,-1.9468,-1.9464,-1.9557,-1.9604,-1.9579,-1.9629,-1.9655,-1.9663,-1.9704,-1.9712,-1.9759,-1.9724,-1.9739,-1.9778,-1.979,-1.9848,-1.9781,-1.9842,-1.9844,-1.9836,-1.9968,-1.999,-2.0092,-1.9924,-1.9926,-1.9928,0,-1.9506,-1.9542,-1.964,-1.9666,-1.9685,-1.973,-1.9771,-1.9809,-1.9838,-1.9841,-1.9869,-1.9857,-1.9915,-1.9867,-1.9947,-1.9902,-1.9926,-1.9935,-1.9939,-1.9946,-1.9893,-1.998,-2.0124,-2.014,-1.995,-1.9948,-1.9946,0,-1.9598,-1.967,-1.9738,-1.9755,-1.9787,-1.9819,-1.9834,-1.986,-1.9887,-1.9922,-1.994,-1.9981,-2.0005,-2.0037,-2.0037,-2.0002,-2.0118,-2.007,-2.0123,-2.0123,-2.0151,-2.0149,-2.0302,-2.0164,-2.0163,-2.0163,-2.0163,0,-1.9718,-1.978,-1.978,-1.9822,-1.989,-1.9884,-1.9951,-1.9962,-1.9985,-2.0029,-2.001,-2.0052,-2.0048,-2.009,-2.009,-2.0157,-2.0167,-2.0172,-2.0172,-2.0175,-2.0174,-2.0192,-2.0185,-2.0167,-2.0166,-2.0165,-2.0165,0,-1.9834,-1.9836,-1.9909,-1.9932,-1.994,-1.9989,-2.0009,-2.0049,-2.0054,-2.011,-2.0123,-2.0132,-2.018,-2.0182,-2.0239,-2.0238,-2.032,-2.0311,-2.0311,-2.031,-2.0363,-2.0358,-2.0533,-2.0556,-2.0402,-2.0403,-2.0404,0,-1.9911,-1.9958,-1.9986,-2.0013,-2.003,-2.0075,-2.0102,-2.0097,-2.0126,-2.0162,-2.0198,-2.0244,-2.0281,-2.036,-2.0372,-2.0414,-2.0407,-2.0465,-2.0414,-2.0415,-2.041,-2.0408,-2.0413,-2.0476,-2.0478,-2.0479,-2.048,0,-2.0049,-2.0047,-2.0087,-2.0128,-2.016,-2.0192,-2.0221,-2.0245,-2.0243,-2.0277,-2.0326,-2.0355,-2.0412,-2.0458,-2.05,-2.0515,-2.0498,-2.0496,-2.0511,-2.0516,-2.0514,-2.0517,-2.034,-2.0493,-2.0492,-2.0491,-2.049,-2.049,-2.0148,-2.0189,-2.0215,-2.026,-2.0281,-2.0308,-2.0347,-2.0357,-2.0397,-2.0443,-2.0437,-2.0492,-2.0518,-2.0572,-2.059,-2.0633,-2.0613,-2.0634,-2.064,-2.0646,-2.0652,-2.0506,-2.064,-2.064,-2.064,-2.0639,-2.0639,0,-2.0286,-2.0301,-2.0342,-2.0384,-2.0419,-2.0398,-2.0429,-2.0461,-2.0509,-2.0535,-2.0571,-2.0628,-2.0672,-2.0687,-2.073,-2.0762,-2.0755,-2.0773,-2.0772,-2.0776,-2.0667,-2.065,-2.0778,-2.0778,-2.0778,-2.0778,-2.0778,-2.0778,-2.0362,-2.0429,-2.0431,-2.0508,-2.0522,-2.0576,-2.0595,-2.0621,-2.0641,-2.0705,-2.0742,-2.075,-2.0772,-2.0816,-2.0857,-2.0859,-2.0877,-2.0899,-2.0899,-2.0797,-2.0784,-2.077,-2.0755,-2.0903,-2.0903,-2.1005,-2.1006,-2.1007]},{"header":{"parameterUnit":"m.s-1","parameterCategory":1,"la1":30.2991,"la2":30.254,"lo1":-89.0895,"lo2":-89.0444,"dy":0.0017,"dx":0.0017,"nx":28,"ny":28,"refTime":"2025-02-13T03:00:00:Z","depth":0,"parameterNumber":3,"parameterNumberName":"V-component_of_WINDS"},"data":[0,0,0,0,0,0,0,0,0,0,0,0,0,0,0,0,0,0,0,0,0,0,0,0,0,0,0,0,0,0,0,0,0,0,0,0,0,0,0,0,0,0,0,0,0,0,0,0,0,0,0,0,0,0,0,0,0,0,-7.7029,-7.703,0,-7.7157,-7.7159,-7.716,-7.7078,-7.7074,-7.7071,-7.7067,-7.7194,-7.7201,-7.7208,0,0,0,0,0,0,0,0,0,0,0,0,0,-7.6708,-7.6714,-7.7029,-7.703,-7.7032,-7.7157,-7.7159,-7.716,-7.7079,-7.7074,-7.707,-7.7065,-7.7192,-7.72,-7.7208,0,0,0,0,0,0,0,0,0,0,0,0,0,-7.6843,-7.6716,-7.7028,-7.7006,-7.7006,-7.7157,-7.7159,-7.7161,-7.708,-7.7074,-7.7068,-7.7063,-7.7189,-7.7199,-7.7209,-7.7388,0,0,-7.7241,-7.7246,0,0,0,0,0,0,0,0,-7.6835,-7.6855,-7.7008,-7.7008,-7.7008,-7.7096,-7.7092,-7.7237,-7.7081,-7.7052,-7.7067,-7.706,-7.7166,-7.7178,-7.7214,-7.7394,-7.7399,-7.7242,-7.7248,-7.7253,-7.7256,0,0,0,0,0,0,0,-7.6826,-7.6849,-7.7079,-7.701,-7.701,-7.6989,-7.7001,-7.7119,-7.7139,-7.7054,-7.7048,-7.7065,-7.7164,-7.7204,-7.7217,-7.7401,-7.7242,-7.7251,-7.7257,-7.7261,-7.7733,-7.7739,0,0,0,0,0,0,-7.6819,-7.6841,-7.7075,-7.7083,-7.6906,-7.6999,-7.7013,-7.7073,-7.7137,-7.7142,-7.7069,-7.706,-7.7189,-7.7204,-7.7221,-7.7434,-7.7253,-7.7262,-7.7268,-7.7727,-7.7734,-7.7741,0,0,0,0,0,0,-7.6813,-7.6841,-7.707,-7.6961,-7.6988,-7.7011,-7.7079,-7.7079,-7.7119,-7.7149,-7.7152,-7.7107,-7.7185,-7.7206,-7.7347,-7.7437,-7.7267,-7.7277,-7.7719,-7.7729,-7.7738,-7.7862,0,0,0,0,0,0,-7.6804,-7.6839,-7.6908,-7.6963,-7.6995,-7.7196,-7.7084,-7.7085,-7.7137,-7.7127,-7.7185,-7.7189,-7.7183,-7.7332,-7.7358,-7.7448,-7.7285,-7.7711,-7.7724,-7.7735,-7.785,-7.7875,-7.7896,0,0,0,0,0,-7.6793,-7.6937,-7.6912,-7.6941,-7.7082,-7.7202,-7.7219,-7.721,-7.7145,-7.7214,-7.7234,-7.7188,-7.7423,-7.7347,-7.7375,-7.7471,-7.7706,-7.772,-7.7734,-7.784,-7.787,-7.7895,0,0,0,0,0,0,-7.689,-7.6944,-7.6917,-7.7083,-7.7139,-7.7188,-7.7274,-7.7242,-7.7316,-7.7303,-7.7286,-7.73,-7.7448,-7.7473,-7.7387,-7.7646,-7.7554,-7.7574,-7.7625,-7.7654,-7.7676,-7.7667,-7.7293,0,0,0,0,0,-7.6931,-7.7026,-7.7066,-7.7209,-7.7239,-7.7252,-7.7304,-7.7292,-7.7348,-7.7371,-7.7401,-7.7455,-7.7542,-7.7599,-7.768,-7.7853,-7.7864,-7.7932,-7.7955,-7.7974,-7.7992,-7.8085,-7.8116,-7.7788,-7.7788,-7.7787,0,0,-7.7016,-7.7057,-7.7118,-7.723,-7.7272,-7.7369,-7.7272,-7.7379,-7.745,-7.7386,-7.7522,-7.7546,-7.7606,-7.7764,-7.7835,-7.779,-7.8085,-7.7992,-7.8006,-7.8014,-7.8103,-7.8134,-7.8162,-7.7797,-7.7796,-7.7794,0,0,-7.7222,-7.7263,-7.7387,-7.7431,-7.7495,-7.7503,-7.7533,-7.7587,-7.7602,-7.7738,-7.7692,-7.7775,-7.7925,-7.797,-7.8012,-7.8235,-7.8195,-7.8261,-7.8381,-7.8472,-7.8498,-7.8521,-7.86,-7.8629,-7.8279,-7.8279,-7.828,0,-7.732,-7.7465,-7.7454,-7.7565,-7.7615,-7.7564,-7.7688,-7.7731,-7.7818,-7.7854,-7.7802,-7.7988,-7.8025,-7.8193,-7.8248,-7.8283,-7.8316,-7.8255,-7.8495,-7.8518,-7.8539,-7.8615,-7.8645,-7.8287,-7.8286,-7.8285,-7.8285,0,-7.7582,-7.7684,-7.7776,-7.7864,-7.7925,-7.8042,-7.8047,-7.8109,-7.8092,-7.8105,-7.8244,-7.8287,-7.8376,-7.8414,-7.8398,-7.858,-7.855,-7.8497,-7.8404,-7.8578,-7.8649,-7.8678,-7.8298,-7.8295,-7.8293,-7.8291,0,0,-7.7853,-7.7934,-7.7968,-7.8007,-7.8075,-7.8153,-7.8267,-7.8356,-7.841,-7.8471,-7.8566,-7.8694,-7.8646,-7.8694,-7.8681,-7.8762,-7.8936,-7.8699,-7.87,-7.8742,-7.914,-7.918,-7.9214,-7.891,-7.8915,-7.892,-7.9135,0,-7.8062,-7.8264,-7.8258,-7.8445,-7.8539,-7.8491,-7.859,-7.8642,-7.8657,-7.8737,-7.8753,-7.8844,-7.8773,-7.8802,-7.8879,-7.8899,-7.9016,-7.8883,-7.8997,-7.9001,-7.8984,-7.9251,-7.9293,-7.9494,-7.9162,-7.9167,-7.917,0,-7.8334,-7.8408,-7.8605,-7.866,-7.8699,-7.8789,-7.887,-7.8947,-7.9004,-7.901,-7.9064,-7.9039,-7.9153,-7.9057,-7.9214,-7.9124,-7.917,-7.9186,-7.9194,-7.9204,-7.9097,-7.9269,-7.9558,-7.9588,-7.9214,-7.921,-7.9207,0,-7.8513,-7.866,-7.8798,-7.8833,-7.89,-7.8964,-7.8994,-7.9046,-7.91,-7.917,-7.9205,-7.9286,-7.9331,-7.9394,-7.9392,-7.9322,-7.9551,-7.9454,-7.9558,-7.9558,-7.9608,-7.9605,-7.991,-7.9638,-7.9637,-7.9637,-7.9636,0,-7.8748,-7.8871,-7.8879,-7.8964,-7.9099,-7.9089,-7.9223,-7.9247,-7.9294,-7.9381,-7.9343,-7.9426,-7.9417,-7.95,-7.9498,-7.9628,-7.9648,-7.9655,-7.9653,-7.9659,-7.9658,-7.9689,-7.9675,-7.9645,-7.9643,-7.9641,-7.964,0,-7.897,-7.8981,-7.9127,-7.9179,-7.9195,-7.9293,-7.9336,-7.9416,-7.9428,-7.9539,-7.9564,-7.9583,-7.9678,-7.9682,-7.979,-7.9789,-7.9948,-7.993,-7.993,-7.9926,-8.003,-8.002,-8.0365,-8.041,-8.0109,-8.0111,-8.0114,0,-7.912,-7.9214,-7.9276,-7.9333,-7.9368,-7.946,-7.9515,-7.9508,-7.9567,-7.964,-7.9711,-7.9803,-7.9876,-8.003,-8.0052,-8.0135,-8.0119,-8.0234,-8.0131,-8.0134,-8.0122,-8.0116,-8.0126,-8.0255,-8.0258,-8.0261,-8.0263,0,-7.9385,-7.9386,-7.9468,-7.9553,-7.9621,-7.9686,-7.9747,-7.9795,-7.9796,-7.9863,-7.9962,-8.0019,-8.0131,-8.0223,-8.0303,-8.0332,-8.0298,-8.0295,-8.0324,-8.0331,-8.0327,-8.0331,-7.9985,-8.0287,-8.0285,-8.0283,-8.0282,-8.0281,-7.9576,-7.9657,-7.9714,-7.9807,-7.9853,-7.9911,-7.9989,-8.0011,-8.0093,-8.0186,-8.0176,-8.0285,-8.0339,-8.0444,-8.048,-8.0564,-8.0524,-8.0565,-8.0576,-8.0586,-8.0598,-8.0313,-8.0579,-8.0578,-8.0577,-8.0577,-8.0576,0,-7.9839,-7.9874,-7.996,-8.0047,-8.012,-8.0083,-8.0149,-8.0212,-8.0309,-8.0363,-8.0437,-8.0549,-8.0638,-8.0667,-8.0753,-8.0815,-8.0801,-8.0837,-8.0833,-8.084,-8.0628,-8.0595,-8.0847,-8.0847,-8.0847,-8.0847,-8.0847,-8.0847,-7.9985,-8.0121,-8.0129,-8.0286,-8.0319,-8.0427,-8.0468,-8.0521,-8.0564,-8.0693,-8.0767,-8.0786,-8.083,-8.0919,-8.0998,-8.1004,-8.1038,-8.1081,-8.1081,-8.0882,-8.0855,-8.0829,-8.0798,-8.1088,-8.1089,-8.1286,-8.1288,-8.1289]}]]